This is the latest recevied weather packets stored in our database for station/object N9WHM. If no packets are shown the sender has not sent any weather packets the latest 10 day(s).
| Time | Temp. | Humidity | Pressure | Rain* | Wind** | Luminosity | Snow |
|---|---|---|---|---|---|---|---|
| 1777468610 | 4.44° C | 96% | 1021.5 hPa | 0 mm | - | 98 W/m² | - |
| 1777468307 | 4.44° C | 97% | 1021.3 hPa | 0 mm | - | 90 W/m² | - |
| 1777468003 | 4.44° C | 97% | 1021.6 hPa | 0 mm | - | 71 W/m² | - |
| 1777467699 | 3.89° C | 97% | 1021.4 hPa | 0 mm | - | 58 W/m² | - |
| 1777467394 | 3.89° C | 98% | 1021.4 hPa | 0 mm | - | 54 W/m² | - |
| 1777467090 | 3.89° C | 98% | 1021.5 hPa | 0 mm | - | 52 W/m² | - |
| 1777466787 | 3.89° C | 98% | 1021.4 hPa | 0 mm | - | 50 W/m² | - |
| 1777466485 | 3.33° C | 98% | 1021.3 hPa | 0 mm | - | 48 W/m² | - |
| 1777466181 | 2.78° C | 98% | 1021.2 hPa | 0 mm | - | 55 W/m² | - |
| 1777465872 | 2.78° C | 98% | 1021.2 hPa | 0 mm | - | 51 W/m² | - |
| 1777465569 | 2.78° C | 98% | 1021 hPa | 0 mm | - | 47 W/m² | - |
| 1777465263 | 2.78° C | 98% | 1021.3 hPa | 0 mm | - | 42 W/m² | - |
| 1777464958 | 2.22° C | 98% | 1021.2 hPa | 0 mm | - | 38 W/m² | - |
| 1777464653 | 2.22° C | 98% | 1021 hPa | 0 mm | - | 34 W/m² | - |
| 1777464349 | 2.22° C | 98% | 1020.9 hPa | 0 mm | - | 30 W/m² | - |
| 1777464045 | 1.67° C | 98% | 1020.9 hPa | 0 mm | - | 27 W/m² | - |
| 1777463740 | 1.67° C | 98% | 1020.8 hPa | 0 mm | - | 22 W/m² | - |
| 1777463435 | 1.67° C | 98% | 1020.9 hPa | 0 mm | - | 19 W/m² | - |
| 1777463131 | 1.67° C | 98% | 1020.8 hPa | 0 mm | - | 15 W/m² | - |
| 1777462827 | 1.67° C | 98% | 1020.9 hPa | 0 mm | - | 12 W/m² | - |
| 1777462522 | 1.11° C | 98% | 1020.8 hPa | 0 mm | - | 9 W/m² | - |
| 1777462219 | 1.11° C | 98% | 1020.7 hPa | 0 mm | - | 6 W/m² | - |
| 1777461915 | 1.67° C | 98% | 1020.8 hPa | 0 mm | - | 4 W/m² | - |
| 1777461612 | 1.67° C | 98% | 1020.6 hPa | 0 mm | - | 2 W/m² | - |
| 1777461307 | 1.67° C | 98% | 1020.4 hPa | 0 mm | - | 1 W/m² | - |
* Rain latest hour (hover to see other rain measurements)
** Current wind speed in m/s (hover to see current wind gust speed)